Time,TemperatureF,DewpointF,PressureIn,WindDirection,WindDirectionDegrees,WindSpeedMPH,WindSpeedGustMPH,Humidity,HourlyPrecipIn,Conditions,Clouds,dailyrainin,SoftwareType,DateUTC
2013-06-01 00:00:00,78.0,72.4,30.09,ESE,104,5.0,16.0,83,0.00,,CLR,0.00,VWS V14.01,2013-06-01 04:00:00,
2013-06-01 00:01:00,77.9,72.3,30.09,ESE,113,11.0,15.0,83,0.00,,CLR,0.00,VWS V14.01,2013-06-01 04:01:00,
2013-06-01 00:06:00,78.0,73.1,30.09,East,100,8.0,17.0,85,0.00,,FEW025,0.00,VWS V14.01,2013-06-01 04:06:00,
2013-06-01 00:11:00,78.0,73.1,30.09,ESE,111,11.0,23.0,85,0.00,,FEW025,0.00,VWS V14.01,2013-06-01 04:11:00,
2013-06-01 00:16:00,78.0,73.5,30.08,East,101,7.0,23.0,86,0.00,,FEW025,0.00,VWS V14.01,2013-06-01 04:16:00,
2013-06-01 00:21:00,77.9,73.0,30.09,East,95,10.0,23.0,85,0.00,,FEW025,0.00,VWS V14.01,2013-06-01 04:21:00,
2013-06-01 00:26:00,77.8,72.9,30.08,ESE,106,8.0,23.0,85,0.00,,FEW025,0.00,VWS V14.01,2013-06-01 04:26:00,
2013-06-01 00:31:00,77.7,72.5,30.08,ESE,108,12.0,23.0,84,0.00,,FEW025,0.00,VWS V14.01,2013-06-01 04:31:00,
2013-06-01 00:36:00,77.6,72.4,30.08,ESE,113,8.0,23.0,84,0.00,,FEW025,0.00,VWS V14.01,2013-06-01 04:36:00,
2013-06-01 00:41:00,77.6,72.0,30.07,ESE,105,5.0,23.0,83,0.00,,FEW025,0.00,VWS V14.01,2013-06-01 04:41:00,
2013-06-01 00:46:00,77.6,72.4,30.07,ESE,110,9.0,23.0,84,0.00,,FEW025,0.00,VWS V14.01,2013-06-01 04:46:00,
2013-06-01 00:51:00,77.6,72.4,30.07,East,85,3.0,23.0,84,0.00,,FEW025,0.00,VWS V14.01,2013-06-01 04:51:00,
2013-06-01 00:56:00,77.6,72.4,30.07,East,100,11.0,23.0,84,0.00,,FEW025,0.00,VWS V14.01,2013-06-01 04:56:00,
2013-06-01 01:01:00,77.6,72.7,30.06,ESE,108,6.0,11.0,85,0.00,,SCT040,0.00,VWS V14.01,2013-06-01 05:01:00,
2013-06-01 01:06:00,77.5,72.6,30.07,ESE,109,5.0,12.0,85,0.00,,SCT040,0.00,VWS V14.01,2013-06-01 05:06:00,
2013-06-01 01:11:00,77.5,72.6,30.06,ESE,120,9.0,12.0,85,0.00,,SCT040,0.00,VWS V14.01,2013-06-01 05:11:00,
2013-06-01 01:16:00,77.5,72.6,30.06,East,92,6.0,13.0,85,0.00,,SCT040,0.00,VWS V14.01,2013-06-01 05:16:00,
2013-06-01 01:21:00,77.5,72.6,30.06,ESE,116,8.0,15.0,85,0.00,,SCT040,0.00,VWS V14.01,2013-06-01 05:21:00,
2013-06-01 01:26:00,77.5,72.6,30.06,ESE,113,6.0,15.0,85,0.00,,BKN028,0.00,VWS V14.01,2013-06-01 05:26:00,
2013-06-01 01:31:00,77.5,72.6,30.06,ESE,113,9.0,15.0,85,0.00,,BKN028,0.00,VWS V14.01,2013-06-01 05:31:00,
2013-06-01 01:36:00,77.5,72.6,30.05,ESE,103,7.0,15.0,85,0.00,,BKN028,0.00,VWS V14.01,2013-06-01 05:36:00,
2013-06-01 01:41:00,77.5,73.0,30.06,East,95,5.0,15.0,86,0.00,,BKN028,0.00,VWS V14.01,2013-06-01 05:41:00,
2013-06-01 01:46:00,77.5,73.3,30.05,East,97,6.0,15.0,87,0.00,,BKN028,0.00,VWS V14.01,2013-06-01 05:46:00,
2013-06-01 01:51:00,77.4,73.2,30.05,ESE,114,4.0,15.0,87,0.00,,BKN028,0.00,VWS V14.01,2013-06-01 05:51:00,
2013-06-01 01:56:00,77.3,73.1,30.05,ESE,121,6.0,15.0,87,0.00,,BKN028,0.00,VWS V14.01,2013-06-01 05:56:00,
2013-06-01 02:01:00,77.3,73.1,30.05,ESE,104,10.0,14.0,87,0.00,,OVC044,0.00,VWS V14.01,2013-06-01 06:01:00,
2013-06-01 02:06:00,77.3,73.1,30.05,ESE,103,5.0,14.0,87,0.00,,OVC044,0.00,VWS V14.01,2013-06-01 06:06:00,
2013-06-01 02:11:00,77.3,73.1,30.04,SE,127,9.0,14.0,87,0.00,,OVC044,0.00,VWS V14.01,2013-06-01 06:11:00,
2013-06-01 02:16:00,77.3,72.8,30.04,East,99,9.0,14.0,86,0.00,,OVC044,0.00,VWS V14.01,2013-06-01 06:16:00,
2013-06-01 02:21:00,77.3,72.8,30.04,SE,127,5.0,14.0,86,0.00,,OVC044,0.00,VWS V14.01,2013-06-01 06:21:00,
2013-06-01 02:26:00,77.3,72.4,30.04,ESE,115,4.0,14.0,85,0.00,,OVC044,0.00,VWS V14.01,2013-06-01 06:26:00,
2013-06-01 02:31:00,77.3,72.4,30.04,East,89,7.0,17.0,85,0.00,,OVC044,0.00,VWS V14.01,2013-06-01 06:31:00,
2013-06-01 02:36:00,77.4,72.9,30.04,ESE,111,3.0,17.0,86,0.00,,OVC044,0.00,VWS V14.01,2013-06-01 06:36:00,
2013-06-01 02:41:00,77.4,72.9,30.03,ESE,115,4.0,17.0,86,0.00,,OVC044,0.00,VWS V14.01,2013-06-01 06:41:00,
2013-06-01 02:46:00,77.4,72.9,30.04,East,92,6.0,17.0,86,0.00,,OVC044,0.00,VWS V14.01,2013-06-01 06:46:00,
2013-06-01 02:51:00,77.4,72.9,30.04,SE,127,5.0,17.0,86,0.00,,OVC044,0.00,VWS V14.01,2013-06-01 06:51:00,
2013-06-01 02:56:00,77.4,72.5,30.03,ESE,111,7.0,17.0,85,0.00,,OVC044,0.00,VWS V14.01,2013-06-01 06:56:00,
2013-06-01 03:01:00,77.4,72.5,30.03,East,99,13.0,13.0,85,0.00,,OVC044,0.00,VWS V14.01,2013-06-01 07:01:00,
2013-06-01 03:06:00,77.5,72.6,30.03,ESE,116,7.0,13.0,85,0.00,,OVC044,0.00,VWS V14.01,2013-06-01 07:06:00,
2013-06-01 03:11:00,77.5,72.6,30.03,ESE,114,4.0,13.0,85,0.00,,OVC044,0.00,VWS V14.01,2013-06-01 07:11:00,
2013-06-01 03:16:00,77.5,72.6,30.03,ESE,117,15.0,15.0,85,0.00,,OVC044,0.00,VWS V14.01,2013-06-01 07:16:00,
2013-06-01 03:21:00,77.4,72.5,30.03,ESE,112,4.0,15.0,85,0.00,,OVC044,0.00,VWS V14.01,2013-06-01 07:21:00,
2013-06-01 03:26:00,77.4,72.9,30.02,SE,133,7.0,15.0,86,0.00,,OVC044,0.00,VWS V14.01,2013-06-01 07:26:00,
2013-06-01 03:31:00,77.5,73.0,30.02,ESE,107,8.0,15.0,86,0.00,,OVC044,0.00,VWS V14.01,2013-06-01 07:31:00,
2013-06-01 03:36:00,77.4,72.9,30.02,East,100,4.0,15.0,86,0.00,,OVC044,0.00,VWS V14.01,2013-06-01 07:36:00,
2013-06-01 03:41:00,77.4,72.9,30.02,ESE,109,9.0,15.0,86,0.00,,OVC044,0.00,VWS V14.01,2013-06-01 07:41:00,
2013-06-01 03:46:00,77.3,72.8,30.02,ESE,112,7.0,15.0,86,0.00,,OVC044,0.00,VWS V14.01,2013-06-01 07:46:00,
2013-06-01 03:51:00,77.3,72.8,30.02,ESE,120,8.0,15.0,86,0.00,,OVC044,0.00,VWS V14.01,2013-06-01 07:51:00,
2013-06-01 03:56:00,77.3,72.8,30.01,ESE,113,7.0,15.0,86,0.00,,OVC044,0.00,VWS V14.01,2013-06-01 07:56:00,
2013-06-01 04:01:00,77.2,72.7,30.02,ESE,111,6.0,7.0,86,0.00,,BKN042,0.00,VWS V14.01,2013-06-01 08:01:00,
2013-06-01 04:06:00,77.2,72.7,30.01,ESE,111,3.0,12.0,86,0.00,,BKN042,0.00,VWS V14.01,2013-06-01 08:06:00,
2013-06-01 04:11:00,77.2,72.7,30.01,ESE,113,8.0,14.0,86,0.00,,BKN042,0.00,VWS V14.01,2013-06-01 08:11:00,
2013-06-01 04:16:00,77.2,72.7,30.02,SE,135,6.0,14.0,86,0.00,,BKN042,0.00,VWS V14.01,2013-06-01 08:16:00,
2013-06-01 04:21:00,77.2,72.7,30.02,ESE,117,10.0,14.0,86,0.00,,BKN042,0.00,VWS V14.01,2013-06-01 08:21:00,
2013-06-01 04:26:00,77.3,72.4,30.01,ESE,102,3.0,14.0,85,0.00,,BKN042,0.00,VWS V14.01,2013-06-01 08:26:00,
2013-06-01 04:31:00,77.3,72.8,30.01,ESE,122,9.0,14.0,86,0.00,,BKN042,0.00,VWS V14.01,2013-06-01 08:31:00,
2013-06-01 04:36:00,77.3,72.4,30.01,ESE,109,9.0,15.0,85,0.00,,BKN042,0.00,VWS V14.01,2013-06-01 08:36:00,
2013-06-01 04:41:00,77.3,72.8,30.01,ESE,115,3.0,15.0,86,0.00,,BKN042,0.00,VWS V14.01,2013-06-01 08:41:00,
2013-06-01 04:46:00,77.4,72.9,30.02,ESE,114,7.0,15.0,86,0.00,,BKN042,0.00,VWS V14.01,2013-06-01 08:46:00,
2013-06-01 04:51:00,77.3,72.8,30.02,ESE,112,6.0,15.0,86,0.00,,BKN042,0.00,VWS V14.01,2013-06-01 08:51:00,
2013-06-01 04:56:00,77.3,72.8,30.02,ESE,116,3.0,15.0,86,0.00,,BKN042,0.00,VWS V14.01,2013-06-01 08:56:00,
2013-06-01 05:01:00,77.3,72.8,30.02,ESE,121,3.0,9.0,86,0.00,,BKN042,0.00,VWS V14.01,2013-06-01 09:01:00,
2013-06-01 05:06:00,77.3,72.8,30.01,ESE,120,3.0,11.0,86,0.00,,BKN042,0.00,VWS V14.01,2013-06-01 09:06:00,
2013-06-01 05:11:00,77.3,72.8,30.02,ESE,122,5.0,11.0,86,0.00,,BKN042,0.00,VWS V14.01,2013-06-01 09:11:00,
2013-06-01 05:16:00,77.4,72.9,30.02,ESE,116,9.0,12.0,86,0.00,,BKN042,0.00,VWS V14.01,2013-06-01 09:16:00,
2013-06-01 05:21:00,77.4,72.9,30.02,ESE,111,10.0,12.0,86,0.00,,BKN042,0.00,VWS V14.01,2013-06-01 09:21:00,
2013-06-01 05:26:00,77.4,72.9,30.02,ESE,102,6.0,12.0,86,0.00,,BKN042,0.00,VWS V14.01,2013-06-01 09:26:00,
2013-06-01 05:31:00,77.4,72.9,30.01,East,96,5.0,12.0,86,0.00,,BKN042,0.00,VWS V14.01,2013-06-01 09:31:00,
2013-06-01 05:36:00,77.4,72.9,30.02,ESE,114,6.0,13.0,86,0.00,,BKN042,0.00,VWS V14.01,2013-06-01 09:36:00,
2013-06-01 05:41:00,77.4,72.9,30.02,East,101,6.0,13.0,86,0.00,,BKN042,0.00,VWS V14.01,2013-06-01 09:41:00,
2013-06-01 05:46:00,77.4,72.9,30.02,ESE,112,3.0,13.0,86,0.00,,BKN042,0.00,VWS V14.01,2013-06-01 09:46:00,
2013-06-01 05:51:00,77.3,72.8,30.02,SE,127,8.0,13.0,86,0.00,,BKN042,0.00,VWS V14.01,2013-06-01 09:51:00,
2013-06-01 05:56:00,77.3,72.8,30.02,East,99,4.0,13.0,86,0.00,,BKN042,0.00,VWS V14.01,2013-06-01 09:56:00,
2013-06-01 06:01:00,77.3,73.1,30.02,ESE,104,4.0,7.0,87,0.00,,CLR,0.00,VWS V14.01,2013-06-01 10:01:00,
2013-06-01 06:06:00,77.2,73.0,30.02,SE,138,4.0,8.0,87,0.00,,CLR,0.00,VWS V14.01,2013-06-01 10:06:00,
2013-06-01 06:11:00,77.1,72.9,30.02,ESE,118,6.0,10.0,87,0.00,,CLR,0.00,VWS V14.01,2013-06-01 10:11:00,
2013-06-01 06:16:00,77.1,72.9,30.03,East,97,3.0,12.0,87,0.00,,CLR,0.00,VWS V14.01,2013-06-01 10:16:00,
2013-06-01 06:21:00,77.1,72.9,30.03,ESE,104,4.0,12.0,87,0.00,,CLR,0.00,VWS V14.01,2013-06-01 10:21:00,
2013-06-01 06:26:00,77.0,72.8,30.03,East,93,4.0,12.0,87,0.00,,CLR,0.00,VWS V14.01,2013-06-01 10:26:00,
2013-06-01 06:31:00,77.0,72.8,30.03,ESE,111,3.0,12.0,87,0.00,,CLR,0.00,VWS V14.01,2013-06-01 10:31:00,
2013-06-01 06:36:00,76.9,73.1,30.04,ENE,74,2.0,12.0,88,0.00,,CLR,0.00,VWS V14.01,2013-06-01 10:36:00,
2013-06-01 06:41:00,76.8,72.6,30.04,ESE,110,3.0,12.0,87,0.00,,CLR,0.00,VWS V14.01,2013-06-01 10:41:00,
2013-06-01 06:46:00,76.8,73.3,30.04,East,86,1.0,12.0,89,0.00,,CLR,0.00,VWS V14.01,2013-06-01 10:46:00,
2013-06-01 06:51:00,76.9,73.4,30.04,ESE,119,5.0,12.0,89,0.00,,CLR,0.00,VWS V14.01,2013-06-01 10:51:00,
2013-06-01 06:56:00,76.9,73.4,30.04,ESE,121,3.0,12.0,89,0.00,,CLR,0.00,VWS V14.01,2013-06-01 10:56:00,
2013-06-01 07:01:00,77.0,73.5,30.04,ESE,106,4.0,4.0,89,0.00,,BKN050,0.00,VWS V14.01,2013-06-01 11:01:00,
2013-06-01 07:06:00,77.2,73.4,30.05,ESE,113,8.0,9.0,88,0.00,,BKN050,0.00,VWS V14.01,2013-06-01 11:06:00,
2013-06-01 07:11:00,77.3,73.5,30.05,ESE,107,3.0,11.0,88,0.00,,BKN050,0.00,VWS V14.01,2013-06-01 11:11:00,
2013-06-01 07:16:00,77.5,73.7,30.05,East,97,7.0,11.0,88,0.00,,BKN050,0.00,VWS V14.01,2013-06-01 11:16:00,
2013-06-01 07:21:00,77.6,73.8,30.05,ESE,106,6.0,11.0,88,0.00,,BKN050,0.00,VWS V14.01,2013-06-01 11:21:00,
2013-06-01 07:26:00,77.7,73.9,30.05,ESE,109,5.0,11.0,88,0.00,,BKN050,0.00,VWS V14.01,2013-06-01 11:26:00,
2013-06-01 07:31:00,77.8,73.6,30.05,East,79,3.0,11.0,87,0.00,,BKN050,0.00,VWS V14.01,2013-06-01 11:31:00,
2013-06-01 07:36:00,78.1,73.9,30.06,ESE,117,9.0,11.0,87,0.00,,BKN050,0.00,VWS V14.01,2013-06-01 11:36:00,
2013-06-01 07:41:00,78.2,73.7,30.06,East,100,5.0,12.0,86,0.00,,BKN050,0.00,VWS V14.01,2013-06-01 11:41:00,
2013-06-01 07:46:00,78.2,73.7,30.06,ESE,120,5.0,12.0,86,0.00,,BKN050,0.00,VWS V14.01,2013-06-01 11:46:00,
2013-06-01 07:51:00,78.1,73.6,30.07,ESE,108,4.0,12.0,86,0.00,,BKN050,0.00,VWS V14.01,2013-06-01 11:51:00,
2013-06-01 07:56:00,78.2,74.0,30.06,ENE,63,5.0,12.0,87,0.00,,BKN050,0.00,VWS V14.01,2013-06-01 11:56:00,
2013-06-01 08:00:00,78.3,73.8,30.07,East,93,3.0,6.0,86,0.00,,SCT020,0.00,VWS V14.01,2013-06-01 12:00:00,
2013-06-01 08:05:00,78.4,73.9,30.06,East,93,4.0,9.0,86,0.00,,SCT020,0.00,VWS V14.01,2013-06-01 12:05:00,
2013-06-01 08:10:00,78.6,74.1,30.07,ENE,71,6.0,9.0,86,0.00,,SCT020,0.00,VWS V14.01,2013-06-01 12:10:00,
2013-06-01 08:15:00,78.6,73.7,30.06,East,94,10.0,13.0,85,0.00,,SCT020,0.00,VWS V14.01,2013-06-01 12:15:00,
2013-06-01 08:20:00,78.8,74.3,30.06,ESE,117,3.0,13.0,86,0.00,,SCT020,0.00,VWS V14.01,2013-06-01 12:20:00,
2013-06-01 08:25:00,79.0,74.1,30.06,ENE,63,3.0,13.0,85,0.00,,SCT020,0.00,VWS V14.01,2013-06-01 12:25:00,
2013-06-01 08:30:00,79.2,74.7,30.06,ESE,119,7.0,13.0,86,0.00,,SCT020,0.00,VWS V14.01,2013-06-01 12:30:00,
2013-06-01 08:35:00,79.3,74.1,30.07,ESE,114,8.0,13.0,84,0.00,,SCT020,0.00,VWS V14.01,2013-06-01 12:35:00,
2013-06-01 08:40:00,79.4,73.8,30.07,SE,127,7.0,13.0,83,0.00,,SCT020,0.00,VWS V14.01,2013-06-01 12:40:00,
2013-06-01 08:45:00,79.6,74.0,30.07,ESE,107,9.0,13.0,83,0.00,,SCT020,0.00,VWS V14.01,2013-06-01 12:45:00,
2013-06-01 08:50:00,79.7,74.1,30.07,ESE,107,9.0,13.0,83,0.00,,SCT020,0.00,VWS V14.01,2013-06-01 12:50:00,
2013-06-01 08:55:00,79.8,74.5,30.07,SE,135,6.0,13.0,84,0.00,,SCT020,0.00,VWS V14.01,2013-06-01 12:55:00,
2013-06-01 09:00:00,79.9,74.3,30.07,SE,127,3.0,7.0,83,0.00,,SCT020,0.00,VWS V14.01,2013-06-01 13:00:00,
2013-06-01 09:05:00,80.1,74.5,30.07,East,98,3.0,10.0,83,0.00,,SCT020,0.00,VWS V14.01,2013-06-01 13:05:00,
2013-06-01 09:10:00,80.1,74.1,30.07,ESE,104,3.0,12.0,82,0.00,,SCT020,0.00,VWS V14.01,2013-06-01 13:10:00,
2013-06-01 09:15:00,80.2,74.6,30.06,ESE,111,8.0,12.0,83,0.00,,SCT020,0.00,VWS V14.01,2013-06-01 13:15:00,
2013-06-01 09:20:00,80.1,74.8,30.06,ENE,57,9.0,12.0,84,0.00,,SCT020,0.00,VWS V14.01,2013-06-01 13:20:00,
2013-06-01 09:25:00,80.0,74.4,30.07,ESE,109,5.0,12.0,83,0.00,,SCT020,0.00,VWS V14.01,2013-06-01 13:25:00,
2013-06-01 09:30:00,80.1,74.8,30.06,ESE,120,6.0,14.0,84,0.00,,SCT020,0.00,VWS V14.01,2013-06-01 13:30:00,
2013-06-01 09:35:00,80.3,75.0,30.06,ESE,102,6.0,14.0,84,0.00,,SCT020,0.00,VWS V14.01,2013-06-01 13:35:00,
2013-06-01 09:40:00,80.4,74.4,30.06,ESE,102,9.0,14.0,82,0.00,,SCT020,0.00,VWS V14.01,2013-06-01 13:40:00,
2013-06-01 09:45:00,80.6,74.6,30.06,ESE,106,9.0,14.0,82,0.00,,SCT020,0.00,VWS V14.01,2013-06-01 13:45:00,
2013-06-01 09:50:00,80.8,74.8,30.06,ESE,105,6.0,14.0,82,0.00,,SCT020,0.00,VWS V14.01,2013-06-01 13:50:00,
2013-06-01 09:56:00,81.0,75.0,30.06,East,91,5.0,14.0,82,0.00,,SCT020,0.00,VWS V14.01,2013-06-01 13:56:00,
2013-06-01 10:01:00,81.2,74.8,30.07,ESE,120,11.0,11.0,81,0.00,,BKN023,0.00,VWS V14.01,2013-06-01 14:01:00,
2013-06-01 10:05:00,81.5,75.1,30.06,East,87,6.0,14.0,81,0.00,,BKN023,0.00,VWS V14.01,2013-06-01 14:05:00,
2013-06-01 10:10:00,81.2,74.4,30.06,ESE,122,7.0,14.0,80,0.00,,BKN023,0.00,VWS V14.01,2013-06-01 14:10:00,
2013-06-01 10:15:00,81.2,74.4,30.06,ENE,77,6.0,14.0,80,0.00,,BKN023,0.00,VWS V14.01,2013-06-01 14:15:00,
2013-06-01 10:20:00,81.3,75.3,30.06,ESE,112,9.0,14.0,82,0.00,,BKN023,0.00,VWS V14.01,2013-06-01 14:20:00,
2013-06-01 10:25:00,81.7,75.3,30.06,ESE,111,8.0,14.0,81,0.00,,SCT023,0.00,VWS V14.01,2013-06-01 14:25:00,
2013-06-01 10:30:00,81.9,75.1,30.06,East,91,6.0,14.0,80,0.00,,SCT023,0.00,VWS V14.01,2013-06-01 14:30:00,
2013-06-01 10:35:00,81.8,74.7,30.06,ESE,107,9.0,14.0,79,0.00,,SCT023,0.00,VWS V14.01,2013-06-01 14:35:00,
2013-06-01 10:40:00,81.9,74.8,30.07,ESE,112,7.0,14.0,79,0.00,,SCT023,0.00,VWS V14.01,2013-06-01 14:40:00,
2013-06-01 10:45:00,82.1,75.3,30.07,ESE,113,6.0,14.0,80,0.00,,SCT023,0.00,VWS V14.01,2013-06-01 14:45:00,
2013-06-01 10:50:00,82.3,75.1,30.06,ESE,122,3.0,14.0,79,0.00,,SCT023,0.00,VWS V14.01,2013-06-01 14:50:00,
2013-06-01 10:55:00,82.4,74.9,30.06,East,97,5.0,14.0,78,0.00,,SCT023,0.00,VWS V14.01,2013-06-01 14:55:00,
2013-06-01 11:00:00,82.3,74.4,30.07,ESE,107,7.0,10.0,77,0.00,,BKN031,0.00,VWS V14.01,2013-06-01 15:00:00,
2013-06-01 11:05:00,82.1,74.9,30.07,ESE,115,7.0,10.0,79,0.00,,BKN029,0.00,VWS V14.01,2013-06-01 15:05:00,
2013-06-01 11:10:00,82.1,74.9,30.07,ESE,106,9.0,11.0,79,0.00,,BKN029,0.00,VWS V14.01,2013-06-01 15:10:00,
2013-06-01 11:15:00,82.1,74.9,30.07,SE,145,4.0,14.0,79,0.00,,BKN029,0.00,VWS V14.01,2013-06-01 15:15:00,
2013-06-01 11:20:00,82.1,74.9,30.06,NE,40,7.0,14.0,79,0.00,,BKN029,0.00,VWS V14.01,2013-06-01 15:20:00,
2013-06-01 11:25:00,81.9,75.1,30.06,ESE,114,9.0,15.0,80,0.00,,BKN029,0.00,VWS V14.01,2013-06-01 15:25:00,
2013-06-01 11:30:00,82.3,75.1,30.06,ESE,107,4.0,18.0,79,0.00,,BKN029,0.00,VWS V14.01,2013-06-01 15:30:00,
2013-06-01 11:35:00,82.3,75.5,30.06,ESE,105,4.0,18.0,80,0.00,,BKN029,0.00,VWS V14.01,2013-06-01 15:35:00,
2013-06-01 11:40:00,82.4,76.0,30.07,ESE,119,9.0,18.0,81,0.00,,BKN029,0.00,VWS V14.01,2013-06-01 15:40:00,
2013-06-01 11:45:00,82.7,76.7,30.07,ENE,74,5.0,18.0,82,0.00,,BKN029,0.00,VWS V14.01,2013-06-01 15:45:00,
2013-06-01 11:50:00,83.0,75.1,30.06,ESE,109,5.0,18.0,77,0.00,,BKN029,0.00,VWS V14.01,2013-06-01 15:50:00,
2013-06-01 11:55:00,83.2,76.0,30.07,East,99,8.0,18.0,79,0.00,,BKN029,0.00,VWS V14.01,2013-06-01 15:55:00,
2013-06-01 12:00:00,83.6,76.0,30.07,East,80,4.0,8.0,78,0.00,,BKN029,0.00,VWS V14.01,2013-06-01 16:00:00,
2013-06-01 12:05:00,83.1,75.2,30.07,ESE,118,7.0,12.0,77,0.00,,BKN033,0.00,VWS V14.01,2013-06-01 16:05:00,
2013-06-01 12:10:00,83.2,75.6,30.07,SE,131,5.0,13.0,78,0.00,,BKN033,0.00,VWS V14.01,2013-06-01 16:10:00,
2013-06-01 12:15:00,83.1,75.5,30.06,East,81,7.0,15.0,78,0.00,,BKN033,0.00,VWS V14.01,2013-06-01 16:15:00,
2013-06-01 12:20:00,82.9,74.9,30.06,ESE,116,12.0,18.0,77,0.00,,BKN033,0.00,VWS V14.01,2013-06-01 16:20:00,
2013-06-01 12:25:00,83.1,75.5,30.06,ENE,62,6.0,18.0,78,0.00,,BKN033,0.00,VWS V14.01,2013-06-01 16:25:00,
2013-06-01 12:30:00,83.2,76.0,30.06,East,89,6.0,18.0,79,0.00,,BKN033,0.00,VWS V14.01,2013-06-01 16:30:00,
2013-06-01 12:35:00,83.2,75.2,30.06,ENE,66,3.0,18.0,77,0.00,,BKN033,0.00,VWS V14.01,2013-06-01 16:35:00,
2013-06-01 12:40:00,83.1,75.2,30.06,East,81,4.0,18.0,77,0.00,,BKN033,0.00,VWS V14.01,2013-06-01 16:40:00,
2013-06-01 12:45:00,83.2,75.2,30.06,East,98,6.0,18.0,77,0.00,,BKN033,0.00,VWS V14.01,2013-06-01 16:45:00,
2013-06-01 12:50:00,83.2,74.8,30.06,East,91,4.0,18.0,76,0.00,,BKN033,0.00,VWS V14.01,2013-06-01 16:50:00,
2013-06-01 12:55:00,83.0,75.8,30.07,East,97,7.0,18.0,79,0.00,,BKN033,0.00,VWS V14.01,2013-06-01 16:55:00,
2013-06-01 13:00:00,83.3,75.3,30.06,ESE,121,4.0,8.0,77,0.00,,BKN033,0.00,VWS V14.01,2013-06-01 17:00:00,
2013-06-01 13:05:00,83.4,76.2,30.06,ENE,73,4.0,12.0,79,0.00,,BKN042,0.00,VWS V14.01,2013-06-01 17:05:00,
2013-06-01 13:10:00,83.3,75.3,30.05,ESE,116,5.0,12.0,77,0.00,,BKN042,0.00,VWS V14.01,2013-06-01 17:10:00,
2013-06-01 13:15:00,83.5,75.5,30.06,ESE,111,8.0,15.0,77,0.00,,BKN042,0.00,VWS V14.01,2013-06-01 17:15:00,
2013-06-01 13:20:00,83.6,75.2,30.06,NE,56,7.0,15.0,76,0.00,,BKN042,0.00,VWS V14.01,2013-06-01 17:20:00,
2013-06-01 13:25:00,83.6,75.6,30.05,ESE,119,7.0,17.0,77,0.00,,BKN042,0.00,VWS V14.01,2013-06-01 17:25:00,
2013-06-01 13:30:00,84.1,76.1,30.06,ESE,104,3.0,17.0,77,0.00,,BKN042,0.00,VWS V14.01,2013-06-01 17:30:00,
2013-06-01 13:35:00,84.0,75.6,30.05,ENE,60,3.0,17.0,76,0.00,,BKN042,0.00,VWS V14.01,2013-06-01 17:35:00,
2013-06-01 13:40:00,83.6,75.6,30.06,ENE,62,9.0,17.0,77,0.00,,BKN042,0.00,VWS V14.01,2013-06-01 17:40:00,
2013-06-01 13:45:00,83.5,75.9,30.05,ESE,117,5.0,17.0,78,0.00,,BKN042,0.00,VWS V14.01,2013-06-01 17:45:00,
2013-06-01 13:50:00,83.9,75.9,30.05,ESE,103,6.0,17.0,77,0.00,,BKN042,0.00,VWS V14.01,2013-06-01 17:50:00,
2013-06-01 13:55:00,83.7,75.7,30.05,ESE,112,6.0,17.0,77,0.00,,BKN042,0.00,VWS V14.01,2013-06-01 17:55:00,
2013-06-01 14:00:00,84.0,75.6,30.05,ESE,107,10.0,11.0,76,0.00,,BKN042,0.00,VWS V14.01,2013-06-01 18:00:00,
2013-06-01 14:05:00,84.5,76.1,30.05,ESE,116,7.0,16.0,76,0.00,,BKN040,0.00,VWS V14.01,2013-06-01 18:05:00,
2013-06-01 14:10:00,84.9,75.7,30.05,ESE,115,10.0,16.0,74,0.00,,BKN040,0.00,VWS V14.01,2013-06-01 18:10:00,
2013-06-01 14:15:00,85.1,75.1,30.04,East,90,5.0,16.0,72,0.00,,BKN040,0.00,VWS V14.01,2013-06-01 18:15:00,
2013-06-01 14:20:00,85.1,75.5,30.04,East,100,9.0,16.0,73,0.00,,BKN040,0.00,VWS V14.01,2013-06-01 18:20:00,
2013-06-01 14:25:00,84.9,75.3,30.04,ESE,113,7.0,16.0,73,0.00,,BKN040,0.00,VWS V14.01,2013-06-01 18:25:00,
2013-06-01 14:30:00,84.3,75.5,30.04,ESE,103,4.0,16.0,75,0.00,,BKN040,0.00,VWS V14.01,2013-06-01 18:30:00,
2013-06-01 14:35:00,84.3,75.5,30.03,ESE,110,13.0,16.0,75,0.00,,BKN040,0.00,VWS V14.01,2013-06-01 18:35:00,
2013-06-01 14:40:00,84.7,76.3,30.04,SE,136,5.0,16.0,76,0.00,,BKN040,0.00,VWS V14.01,2013-06-01 18:40:00,
2013-06-01 14:45:00,84.8,75.2,30.04,ESE,104,13.0,16.0,73,0.00,,BKN040,0.00,VWS V14.01,2013-06-01 18:45:00,
2013-06-01 14:50:00,84.7,75.5,30.03,ESE,113,7.0,16.0,74,0.00,,BKN040,0.00,VWS V14.01,2013-06-01 18:50:00,
2013-06-01 14:55:00,84.6,75.0,30.03,ESE,110,10.0,16.0,73,0.00,,BKN040,0.00,VWS V14.01,2013-06-01 18:55:00,
2013-06-01 15:00:00,84.0,75.2,30.03,ESE,105,6.0,13.0,75,0.00,,BKN040,0.00,VWS V14.01,2013-06-01 19:00:00,
2013-06-01 15:05:00,83.6,74.8,30.03,ESE,108,5.0,13.0,75,0.00,,FEW018,0.00,VWS V14.01,2013-06-01 19:05:00,
2013-06-01 15:10:00,83.8,75.0,30.03,East,97,10.0,17.0,75,0.00,,FEW018,0.00,VWS V14.01,2013-06-01 19:10:00,
2013-06-01 15:15:00,83.9,75.5,30.03,ESE,107,6.0,17.0,76,0.00,,FEW018,0.00,VWS V14.01,2013-06-01 19:15:00,
2013-06-01 15:20:00,84.3,75.9,30.03,ESE,109,7.0,17.0,76,0.00,,FEW018,0.00,VWS V14.01,2013-06-01 19:20:00,
2013-06-01 15:25:00,84.2,75.4,30.04,East,100,10.0,17.0,75,0.00,,FEW018,0.00,VWS V14.01,2013-06-01 19:25:00,
2013-06-01 15:30:00,84.2,75.4,30.04,ESE,116,10.0,17.0,75,0.00,,FEW018,0.00,VWS V14.01,2013-06-01 19:30:00,
2013-06-01 15:35:00,84.4,75.6,30.03,ENE,62,4.0,17.0,75,0.00,,FEW018,0.00,VWS V14.01,2013-06-01 19:35:00,
2013-06-01 15:40:00,84.0,75.6,30.02,ESE,114,11.0,17.0,76,0.00,,FEW018,0.00,VWS V14.01,2013-06-01 19:40:00,
2013-06-01 15:45:00,83.7,75.3,30.03,East,87,5.0,17.0,76,0.00,,FEW018,0.00,VWS V14.01,2013-06-01 19:45:00,
2013-06-01 15:50:00,83.2,75.2,30.02,ESE,115,10.0,17.0,77,0.00,,FEW018,0.00,VWS V14.01,2013-06-01 19:50:00,
2013-06-01 15:55:00,83.2,75.6,30.02,East,94,6.0,17.0,78,0.00,,FEW018,0.00,VWS V14.01,2013-06-01 19:55:00,
2013-06-01 16:00:00,83.3,75.7,30.02,ESE,112,9.0,12.0,78,0.00,,FEW018,0.00,VWS V14.01,2013-06-01 20:00:00,
2013-06-01 16:05:00,83.6,75.6,30.02,ESE,120,7.0,15.0,77,0.00,,SCT044,0.00,VWS V14.01,2013-06-01 20:05:00,
2013-06-01 16:10:00,83.9,75.9,30.03,ESE,114,7.0,15.0,77,0.00,,SCT044,0.00,VWS V14.01,2013-06-01 20:10:00,
2013-06-01 16:15:00,84.4,76.0,30.02,ESE,116,4.0,17.0,76,0.00,,SCT044,0.00,VWS V14.01,2013-06-01 20:15:00,
2013-06-01 16:20:00,84.7,75.9,30.02,ENE,70,3.0,19.0,75,0.00,,SCT044,0.00,VWS V14.01,2013-06-01 20:20:00,
2013-06-01 16:25:00,84.7,75.9,30.02,ESE,103,4.0,19.0,75,0.00,,SCT044,0.00,VWS V14.01,2013-06-01 20:25:00,
2013-06-01 16:30:00,84.0,75.6,30.02,ESE,110,4.0,19.0,76,0.00,,SCT044,0.00,VWS V14.01,2013-06-01 20:30:00,
2013-06-01 16:35:00,82.8,75.6,30.02,ESE,118,14.0,19.0,79,0.00,,SCT044,0.00,VWS V14.01,2013-06-01 20:35:00,
2013-06-01 16:40:00,82.5,76.1,30.01,ESE,115,7.0,19.0,81,0.00,,SCT044,0.00,VWS V14.01,2013-06-01 20:40:00,
2013-06-01 16:45:00,82.4,76.0,30.02,ESE,112,4.0,19.0,81,0.00,,BKN034,0.00,VWS V14.01,2013-06-01 20:45:00,
2013-06-01 16:50:00,82.3,75.1,30.02,ESE,122,4.0,19.0,79,0.00,,BKN034,0.00,VWS V14.01,2013-06-01 20:50:00,
2013-06-01 16:55:00,82.2,75.0,30.02,ESE,105,6.0,19.0,79,0.00,,BKN034,0.00,VWS V14.01,2013-06-01 20:55:00,
2013-06-01 17:00:00,82.1,74.9,30.02,ESE,107,12.0,14.0,79,0.00,,BKN034,0.00,VWS V14.01,2013-06-01 21:00:00,
2013-06-01 17:05:00,82.1,75.3,30.02,ESE,107,9.0,18.0,80,0.00,,BKN034,0.00,VWS V14.01,2013-06-01 21:05:00,
2013-06-01 17:10:00,82.1,75.3,30.02,East,97,10.0,18.0,80,0.00,,BKN034,0.00,VWS V14.01,2013-06-01 21:10:00,
2013-06-01 17:15:00,81.9,75.1,30.02,ESE,105,8.0,18.0,80,0.00,,BKN034,0.00,VWS V14.01,2013-06-01 21:15:00,
2013-06-01 17:20:00,81.8,74.7,30.02,SE,124,12.0,19.0,79,0.00,,BKN034,0.00,VWS V14.01,2013-06-01 21:20:00,
2013-06-01 17:25:00,81.6,74.1,30.02,ESE,114,8.0,19.0,78,0.00,,BKN034,0.00,VWS V14.01,2013-06-01 21:25:00,
2013-06-01 17:30:00,81.3,74.5,30.02,SE,126,5.0,19.0,80,0.00,,BKN034,0.00,VWS V14.01,2013-06-01 21:30:00,
2013-06-01 17:35:00,81.1,74.3,30.02,ESE,103,7.0,19.0,80,0.00,,BKN034,0.00,VWS V14.01,2013-06-01 21:35:00,
2013-06-01 17:40:00,80.8,74.8,30.02,ESE,110,10.0,19.0,82,0.00,,BKN034,0.00,VWS V14.01,2013-06-01 21:40:00,
2013-06-01 17:45:00,80.5,74.5,30.02,East,98,7.0,19.0,82,0.00,,BKN034,0.00,VWS V14.01,2013-06-01 21:45:00,
2013-06-01 17:50:00,80.1,74.5,30.02,SE,141,5.0,19.0,83,0.00,,BKN034,0.00,VWS V14.01,2013-06-01 21:50:00,
2013-06-01 17:55:00,79.9,73.9,30.02,SE,132,8.0,19.0,82,0.00,,BKN034,0.00,VWS V14.01,2013-06-01 21:55:00,
2013-06-01 18:00:00,79.8,74.2,30.02,ESE,113,10.0,11.0,83,0.00,,-RA,0.00,VWS V14.01,2013-06-01 22:00:00,
2013-06-01 18:05:00,79.8,73.8,30.02,East,97,8.0,11.0,82,0.00,,-RA,0.00,VWS V14.01,2013-06-01 22:05:00,
2013-06-01 18:10:00,79.9,73.9,30.02,SE,133,3.0,11.0,82,0.00,,-RA,0.00,VWS V14.01,2013-06-01 22:10:00,
2013-06-01 18:15:00,80.1,74.1,30.02,ESE,119,4.0,11.0,82,0.00,,OVC060,0.00,VWS V14.01,2013-06-01 22:15:00,
2013-06-01 18:20:00,80.2,74.6,30.01,SE,133,5.0,11.0,83,0.00,,OVC060,0.00,VWS V14.01,2013-06-01 22:20:00,
2013-06-01 18:25:00,80.3,75.0,30.02,East,79,1.0,11.0,84,0.00,,OVC060,0.00,VWS V14.01,2013-06-01 22:25:00,
2013-06-01 18:30:00,79.9,75.0,30.02,ESE,122,9.0,11.0,85,0.00,,OVC060,0.00,VWS V14.01,2013-06-01 22:30:00,
2013-06-01 18:35:00,79.7,75.2,30.01,ESE,106,6.0,11.0,86,0.00,,OVC060,0.00,VWS V14.01,2013-06-01 22:35:00,
2013-06-01 18:40:00,79.6,75.1,30.01,SE,124,7.0,11.0,86,0.00,,OVC060,0.00,VWS V14.01,2013-06-01 22:40:00,
2013-06-01 18:45:00,79.7,75.5,30.02,ESE,112,4.0,11.0,87,0.00,,OVC060,0.00,VWS V14.01,2013-06-01 22:45:00,
2013-06-01 18:50:00,79.8,75.2,30.02,SE,124,6.0,11.0,86,0.00,,OVC060,0.00,VWS V14.01,2013-06-01 22:50:00,
2013-06-01 18:55:00,79.9,75.0,30.02,ESE,111,10.0,13.0,85,0.00,,OVC060,0.00,VWS V14.01,2013-06-01 22:55:00,
2013-06-01 19:00:00,80.1,74.8,30.02,ESE,121,9.0,13.0,84,0.00,,OVC060,0.00,VWS V14.01,2013-06-01 23:00:00,
2013-06-01 19:05:00,80.3,74.7,30.02,ESE,113,6.0,18.0,83,0.00,,BKN070,0.00,VWS V14.01,2013-06-01 23:05:00,
2013-06-01 19:10:00,80.4,75.1,30.02,SE,144,4.0,18.0,84,0.00,,SCT070,0.00,VWS V14.01,2013-06-01 23:10:00,
2013-06-01 19:15:00,80.5,74.9,30.02,SE,129,2.0,18.0,83,0.00,,SCT070,0.00,VWS V14.01,2013-06-01 23:15:00,
2013-06-01 19:20:00,80.5,74.9,30.02,SE,124,4.0,18.0,83,0.00,,SCT070,0.00,VWS V14.01,2013-06-01 23:20:00,
2013-06-01 19:25:00,80.6,75.0,30.02,ESE,121,10.0,18.0,83,0.00,,SCT070,0.00,VWS V14.01,2013-06-01 23:25:00,
2013-06-01 19:30:00,80.6,75.0,30.02,ESE,122,4.0,18.0,83,0.00,,SCT070,0.00,VWS V14.01,2013-06-01 23:30:00,
2013-06-01 19:35:00,80.7,75.1,30.02,SE,131,4.0,18.0,83,0.00,,SCT070,0.00,VWS V14.01,2013-06-01 23:35:00,
2013-06-01 19:40:00,80.5,74.9,30.03,SE,130,3.0,18.0,83,0.00,,SCT070,0.00,VWS V14.01,2013-06-01 23:40:00,
2013-06-01 19:45:00,80.4,74.8,30.02,SE,126,4.0,18.0,83,0.00,,SCT070,0.00,VWS V14.01,2013-06-01 23:45:00,
2013-06-01 19:50:00,80.3,74.7,30.02,ESE,121,7.0,18.0,83,0.00,,SCT070,0.00,VWS V14.01,2013-06-01 23:50:00,
2013-06-01 19:55:00,80.3,75.0,30.03,ESE,109,7.0,18.0,84,0.00,,SCT070,0.00,VWS V14.01,2013-06-01 23:55:00,
2013-06-01 20:00:00,80.3,75.0,30.03,ESE,122,3.0,3.0,84,0.00,,SCT070,0.00,VWS V14.01,2013-06-02 00:00:00,
2013-06-01 20:05:00,80.3,75.4,30.04,ESE,106,9.0,10.0,85,0.00,,FEW016,0.00,VWS V14.01,2013-06-02 00:05:00,
2013-06-01 20:10:00,80.2,75.3,30.04,ESE,118,3.0,10.0,85,0.00,,FEW016,0.00,VWS V14.01,2013-06-02 00:10:00,
2013-06-01 20:15:00,80.1,74.8,30.04,SE,131,4.0,12.0,84,0.00,,FEW016,0.00,VWS V14.01,2013-06-02 00:15:00,
2013-06-01 20:20:00,80.1,74.8,30.03,ESE,116,9.0,12.0,84,0.00,,FEW016,0.00,VWS V14.01,2013-06-02 00:20:00,
2013-06-01 20:25:00,80.1,74.5,30.03,SE,141,4.0,12.0,83,0.00,,FEW016,0.00,VWS V14.01,2013-06-02 00:25:00,
2013-06-01 20:30:00,80.1,74.8,30.03,ESE,120,6.0,12.0,84,0.00,,FEW016,0.00,VWS V14.01,2013-06-02 00:30:00,
2013-06-01 20:35:00,80.1,74.8,30.03,SSE,160,2.0,12.0,84,0.00,,FEW016,0.00,VWS V14.01,2013-06-02 00:35:00,
2013-06-01 20:40:00,80.0,75.1,30.03,ESE,116,5.0,12.0,85,0.00,,FEW016,0.00,VWS V14.01,2013-06-02 00:40:00,
2013-06-01 20:45:00,80.0,75.1,30.03,ESE,113,5.0,12.0,85,0.00,,FEW016,0.00,VWS V14.01,2013-06-02 00:45:00,
2013-06-01 20:50:00,79.9,75.0,30.03,ESE,117,8.0,12.0,85,0.00,,FEW016,0.00,VWS V14.01,2013-06-02 00:50:00,
2013-06-01 20:55:00,79.9,75.0,30.03,ESE,105,2.0,12.0,85,0.00,,FEW016,0.00,VWS V14.01,2013-06-02 00:55:00,
2013-06-01 21:00:00,79.9,75.0,30.02,ESE,113,4.0,5.0,85,0.00,,FEW016,0.00,VWS V14.01,2013-06-02 01:00:00,
2013-06-01 21:05:00,79.8,74.9,30.03,ESE,113,4.0,11.0,85,0.00,,BKN040,0.00,VWS V14.01,2013-06-02 01:05:00,
2013-06-01 21:10:00,79.8,74.9,30.03,ESE,110,3.0,11.0,85,0.00,,BKN040,0.00,VWS V14.01,2013-06-02 01:10:00,
2013-06-01 21:15:00,79.8,74.9,30.03,ESE,123,4.0,11.0,85,0.00,,BKN040,0.00,VWS V14.01,2013-06-02 01:15:00,
2013-06-01 21:20:00,79.8,74.5,30.03,ESE,103,4.0,11.0,84,0.00,,BKN040,0.00,VWS V14.01,2013-06-02 01:20:00,
2013-06-01 21:25:00,79.8,74.5,30.03,ESE,112,4.0,11.0,84,0.00,,BKN040,0.00,VWS V14.01,2013-06-02 01:25:00,
2013-06-01 21:30:00,79.8,74.5,30.04,ESE,123,7.0,11.0,84,0.00,,BKN040,0.00,VWS V14.01,2013-06-02 01:30:00,
2013-06-01 21:35:00,79.7,74.4,30.04,ESE,118,7.0,11.0,84,0.00,,BKN040,0.00,VWS V14.01,2013-06-02 01:35:00,
2013-06-01 21:40:00,79.7,74.8,30.04,ESE,109,4.0,11.0,85,0.00,,BKN040,0.00,VWS V14.01,2013-06-02 01:40:00,
2013-06-01 21:45:00,79.5,74.6,30.05,ESE,109,6.0,11.0,85,0.00,,BKN040,0.00,VWS V14.01,2013-06-02 01:45:00,
2013-06-01 21:50:00,79.5,74.6,30.04,SE,133,8.0,11.0,85,0.00,,BKN040,0.00,VWS V14.01,2013-06-02 01:50:00,
2013-06-01 21:55:00,79.5,74.9,30.05,ENE,60,3.0,11.0,86,0.00,,BKN040,0.00,VWS V14.01,2013-06-02 01:55:00,
2013-06-01 22:00:00,79.5,74.6,30.05,ESE,105,6.0,9.0,85,0.00,,BKN040,0.00,VWS V14.01,2013-06-02 02:00:00,
2013-06-01 22:05:00,79.5,74.6,30.04,East,82,2.0,9.0,85,0.00,,OVC040,0.00,VWS V14.01,2013-06-02 02:05:00,
2013-06-01 22:10:00,79.4,74.5,30.03,ESE,114,7.0,9.0,85,0.00,,OVC040,0.00,VWS V14.01,2013-06-02 02:10:00,
2013-06-01 22:15:00,79.4,74.8,30.03,East,84,0.0,9.0,86,0.00,,OVC040,0.00,VWS V14.01,2013-06-02 02:15:00,
2013-06-01 22:20:00,79.4,74.8,30.03,ESE,111,3.0,9.0,86,0.00,,OVC040,0.00,VWS V14.01,2013-06-02 02:20:00,
2013-06-01 22:25:00,79.4,74.8,30.03,ESE,106,3.0,9.0,86,0.00,,OVC040,0.00,VWS V14.01,2013-06-02 02:25:00,
2013-06-01 22:30:00,79.4,74.8,30.04,SE,124,3.0,9.0,86,0.00,,OVC040,0.00,VWS V14.01,2013-06-02 02:30:00,
2013-06-01 22:35:00,79.4,74.8,30.04,ESE,119,4.0,10.0,86,0.00,,OVC040,0.00,VWS V14.01,2013-06-02 02:35:00,
2013-06-01 22:40:00,79.4,74.8,30.04,East,95,5.0,10.0,86,0.00,,OVC040,0.00,VWS V14.01,2013-06-02 02:40:00,
2013-06-01 22:45:00,79.4,74.8,30.04,SE,143,3.0,10.0,86,0.00,,OVC040,0.00,VWS V14.01,2013-06-02 02:45:00,
2013-06-01 22:50:00,79.4,74.8,30.04,ESE,107,4.0,10.0,86,0.00,,RA,0.00,VWS V14.01,2013-06-02 02:50:00,
2013-06-01 22:55:00,79.3,74.8,30.04,ESE,102,2.0,10.0,86,0.00,,RA,0.00,VWS V14.01,2013-06-02 02:55:00,
2013-06-01 23:00:00,79.3,75.1,30.05,ESE,103,5.0,6.0,87,0.00,,RA,0.00,VWS V14.01,2013-06-02 03:00:00,
2013-06-01 23:05:00,79.3,75.1,30.04,SSE,156,3.0,8.0,87,0.00,,OVC100,0.00,VWS V14.01,2013-06-02 03:05:00,
2013-06-01 23:10:00,79.3,74.8,30.04,SE,143,3.0,13.0,86,0.00,,OVC100,0.00,VWS V14.01,2013-06-02 03:10:00,
2013-06-01 23:15:00,79.3,75.1,30.04,SSE,156,0.0,13.0,87,0.01,,BKN100,0.01,VWS V14.01,2013-06-02 03:15:00,
2013-06-01 23:20:00,79.3,75.1,30.04,SSE,155,0.0,13.0,87,0.01,,BKN100,0.01,VWS V14.01,2013-06-02 03:20:00,
2013-06-01 23:25:00,79.2,75.0,30.03,SSE,155,0.0,13.0,87,0.01,,BKN100,0.01,VWS V14.01,2013-06-02 03:25:00,
2013-06-01 23:30:00,79.3,75.4,30.04,ESE,112,2.0,13.0,88,0.01,,BKN100,0.01,VWS V14.01,2013-06-02 03:30:00,
2013-06-01 23:35:00,79.3,75.4,30.03,SE,139,0.0,13.0,88,0.01,,BKN025,0.01,VWS V14.01,2013-06-02 03:35:00,
2013-06-01 23:40:00,79.2,75.3,30.03,SSE,156,0.0,13.0,88,0.01,,BKN025,0.01,VWS V14.01,2013-06-02 03:40:00,
2013-06-01 23:45:00,79.1,75.6,30.04,ESE,113,2.0,13.0,89,0.01,,BKN025,0.01,VWS V14.01,2013-06-02 03:45:00,
2013-06-01 23:50:00,78.7,75.2,30.03,ESE,120,3.0,13.0,89,0.01,,SCT025,0.01,VWS V14.01,2013-06-02 03:50:00,
2013-06-01 23:55:00,78.6,75.1,30.04,SE,134,3.0,13.0,89,0.01,,SCT025,0.01,VWS V14.01,2013-06-02 03:55:00,